sat.trackr.live / text

‹ back to catalog

STARLINK-32594

NORAD 62302 · 2024-239B

PAYLOAD ACTIVE UNKNOWN

§ Identity

Operator
Country
US
Launch date
2024-12-13
Launch site
AFWTR
Launch vehicle
Mass (kg)
RCS (m²)

Purposes: comms

External: N2YO · Heavens-Above · Gunter

§ Orbital elements

Epoch: 2026-09-21T12:21:55.318176Z

Period
93.85 min
Inclination
53.1618°
Eccentricity
0.0001141
Mean motion
15.34404514 rev/d
Perigee alt
461.9 km
Apogee alt
463.5 km
Semi-major
6,840.8 km
B*
5.2601e-4
RAAN
358.6484°
Arg perigee
111.4210°
Mean anomaly
248.6914°
Rev number
9,944

§ Raw data

STARLINK-325941 62302U 24239B   26264.51522359  .00017440  00000+0  52601-3 0  99972 62302  53.1618 358.6484 0001141 111.4210 248.6914 15.34404514 99445

JSON: /api/v1/satellites/62302 · /tle

For live sub-satellite position, see the globe view (requires WebGL).

§ Visibility from observer

Set your observer location to see the next 7 days of passes ≥ 10°. The values pass through the URL so the page stays shareable.

No JS? Fill the form by hand. The geolocation button needs JavaScript.